Regional Weather Roundup
Issued by NWS Sioux Falls, SD

Home | Current Version | Previous Version | Text Only | Print | Product List | Glossary Off
Versions: 1 2 3 4 5 6 7 8 9 10 11 12 13 14 15 16 17 18 19 20 21 22 23 24 25 26 27 28 29 30 31 32 33 34 35 36 37 38 39 40 41 42 43 44 45 46 47 48 49 50

000
ASUS43 KFSD 250310
RWRFSD

WEATHER ROUNDUP FOR SE SOUTH DAKOTA/SW MINNESOTA/NW IOWA
NATIONAL WEATHER SERVICE SIOUX FALLS SD
1000 PM CDT SUN MAY 24 2015

NOTE: "FAIR" INDICATES FEW OR NO CLOUDS BELOW 12,000 FEET WITH NO
SIGNIFICANT WEATHER AND OR OBSTRUCTIONS TO VISIBILITY.


SDZ038>040-050-052>070-250400-
SOUTHEAST SOUTH DAKOTA

CITY           SKY/WX    TMP DP  RH WIND       PRES   REMARKS
BROOKINGS      CLOUDY    57  55  94 NE8       29.79F
CHAMBERLAIN    CLOUDY    58  58  99 NE5       29.80R
HURON          CLOUDY    59  57  93 NE6       29.80S
MADISON        CLOUDY    57  57 100 NE7       29.79S
MITCHELL       CLOUDY    61  59  93 NE6       29.79S
SIOUX FALLS    CLOUDY    60  58  92 NE6       29.77S
WINNER         LGT RAIN  60  58  92 NE6       29.81R FOG
YANKTON        CLOUDY    61  57  88 CALM      29.76S
$$

MNZ071-072-080-081-089-090-097-098-250400-
SOUTHWEST MINNESOTA

CITY           SKY/WX    TMP DP  RH WIND       PRES   REMARKS
FAIRMONT       CLOUDY    61  55  82 E3        29.75S
JACKSON        CLOUDY    59  59 100 NE7       29.76F FOG
LUVERNE        LGT RAIN  61  57  88 NE7       29.77S
MARSHALL       CLOUDY    57  54  88 NE12      29.79S
MONTEVIDEO     DRIZZLE   57  57 100 E9        29.82F
REDWOOD FALLS  CLOUDY    59  57  93 NE7       29.78F
TRACY          DRIZZLE   59  58  97 E8        29.79S
WINDOM         DRIZZLE   59  57  94 NE6       29.77S
WORTHINGTON    CLOUDY    59  55  88 NE7       29.77S
$$

IAZ001>003-012>014-020>022-031-032-NEZ013-014-SDZ071-250400-
NORTHWEST IOWA

CITY           SKY/WX    TMP DP  RH WIND       PRES   REMARKS
CHEROKEE       CLOUDY    61  61 100 CALM      29.77R
DENISON        CLOUDY    61  61 100 CALM      29.77R FOG
ESTHERVILLE    FOG       60  60 100 CALM      29.75S VSB 3/4
LE MARS        CLOUDY    63  61  94 CALM      29.78R
ORANGE CITY    CLOUDY    61  59  94 CALM      29.77R
SHELDON        CLOUDY    61 N/A N/A CALM      29.75S
SIOUX CITY     CLOUDY    62  60  93 CALM      29.77R FOG
SPENCER        CLOUDY    62  61  96 CALM      29.76S
STORM LAKE     CLOUDY    61  61 100 SW7       29.78R
$$

ABBREVIATIONS USED IN REMARKS
   TC - TEMPERATURE IN CELSIUS
  WCI - WIND CHILL INDEX
   HX - HEAT INDEX
  VSB - VISIBILITY



USA.gov is the U.S. government's official web portal to all federal, state and local government web resources and services.